{"data":{"norad_id":64592,"intl_designator":"2025-135BS","name":"HUBBLE 7","alt_names":[],"object_type":"PAYLOAD","status":"ACTIVE","operator":null,"country":"US","launch_date":"2025-06-23","launch_site_code":"AFWTR","launch_vehicle":null,"mission":null,"orbit_class":"UNKNOWN","rcs_meters":null,"size_class":null,"mass_kg":null,"dimensions":null,"purposes":[],"wikipedia_slug":null,"has_3d_model":false,"image_url":null,"decayed_at":null,"tle_current":{"epoch":"2026-09-21T21:19:47.523936Z","epoch_age_seconds":57653,"freshness":"FRESH","line1":"1 64592U 25135BS  26264.88874449  .00000876  00000+0  88120-4 0  9997","line2":"2 64592  97.7831  18.5822 0003607  47.1103 313.0419 14.93743080 68342","mean_motion":14.9374308,"eccentricity":0.0003607,"inclination_deg":97.7831,"raan_deg":18.5822,"arg_perigee_deg":47.1103,"mean_anomaly_deg":313.0419,"bstar":8.812e-5,"rev_number":6834,"period_min":96.402120236098,"perigee_km":583.76478427149,"apogee_km":588.78891242169,"semimajor_km":6964.4138483466,"source":"CELESTRAK","updated_at":"2026-09-22T09:00:29.857759Z"}}}